| time (UTC) | temp C | wind direction | speed KPH | gust KPH | rain 1hr cm | rain 24hr cm | rain mn cm | humidity % | barometer mb |
| 20260510032018 | 8 | 269 | 8.0 | 4.8 | 0.00 | 0.61 | 0.61 | 97 | 1006.3 |
| 20260510031018 | 8 | 269 | 8.0 | 4.8 | 0.00 | 0.61 | 0.61 | 96 | 1006.3 |
| 20260510030017 | 8 | 269 | 8.0 | 4.8 | 0.00 | 0.61 | 0.61 | 96 | 1006.3 |
| 20260510025017 | 8 | 269 | 8.0 | 4.8 | 0.00 | 0.61 | 0.61 | 96 | 1006.3 |
| 20260510024018 | 8 | 269 | 8.0 | 4.8 | 0.00 | 0.61 | 0.61 | 96 | 1006.4 |
| 20260510023017 | 8 | 269 | 8.0 | 4.8 | 0.00 | 0.61 | 0.61 | 96 | 1006.5 |
| 20260510022018 | 8 | 269 | 8.0 | 4.8 | 0.00 | 0.61 | 0.61 | 96 | 1006.7 |
| 20260510021018 | 8 | 269 | 8.0 | 4.8 | 0.00 | 0.61 | 0.61 | 96 | 1006.7 |
| 20260510020018 | 8 | 269 | 8.0 | 4.8 | 0.00 | 0.61 | 0.61 | 95 | 1006.4 |
| 20260510014018 | 10 | 269 | 8.0 | 4.8 | 0.00 | 0.61 | 0.61 | 96 | 1006.4 |
| 20260510013018 | 10 | 269 | 8.0 | 4.8 | 0.00 | 0.61 | 0.61 | 96 | 1006.5 |
| 20260510012017 | 10 | 269 | 8.0 | 4.8 | 0.00 | 0.61 | 0.61 | 96 | 1006.5 |
| 20260510011018 | 10 | 269 | 8.0 | 4.8 | 0.00 | 0.61 | 0.61 | 96 | 1006.3 |
| 20260510010017 | 10 | 269 | 8.0 | 4.8 | 0.00 | 0.61 | 0.61 | 96 | 1006.3 |
| 20260510005018 | 10 | 269 | 8.0 | 4.8 | 0.00 | 0.61 | 0.61 | 95 | 1006.3 |
| 20260510004018 | 10 | 269 | 8.0 | 4.8 | 0.00 | 0.61 | 0.61 | 95 | 1006.3 |
| 20260510003018 | 10 | 269 | 8.0 | 4.8 | 0.00 | 0.61 | 0.61 | 95 | 1006.1 |
| 20260510002017 | 10 | 269 | 8.0 | 4.8 | 0.00 | 0.61 | 0.61 | 95 | 1006.1 |
| 20260510001018 | 10 | 269 | 8.0 | 4.8 | 0.00 | 0.61 | 0.61 | 95 | 1006.1 |
| 20260510000018 | 11 | 269 | 8.0 | 4.8 | 0.00 | 0.61 | 0.61 | 94 | 1006.2 |
| 20260509235019 | 11 | 269 | 8.0 | 4.8 | 0.00 | 0.61 | 0.61 | 94 | 1005.9 |
| 20260509234017 | 11 | 269 | 8.0 | 4.8 | 0.00 | 0.61 | 0.61 | 94 | 1005.9 |
| 20260509233017 | 11 | 269 | 8.0 | 4.8 | 0.00 | 0.61 | 0.61 | 94 | 1005.8 |
| 20260509232018 | 11 | 269 | 8.0 | 4.8 | 0.00 | 0.61 | 0.61 | 94 | 1005.7 |
| 20260509231018 | 11 | 269 | 8.0 | 4.8 | 0.00 | 0.61 | 0.61 | 95 | 1005.6 |
| 20260509230018 | 11 | 269 | 8.0 | 4.8 | 0.00 | 0.61 | 0.61 | 95 | 1005.6 |
| 20260509225017 | 11 | 269 | 8.0 | 4.8 | 0.00 | 0.61 | 0.61 | 96 | 1005.6 |
| 20260509224018 | 11 | 269 | 8.0 | 4.8 | 0.00 | 0.61 | 0.61 | 96 | 1005.6 |
| 20260509223018 | 11 | 269 | 8.0 | 4.8 | 0.00 | 0.61 | 0.61 | 96 | 1005.5 |
| 20260509222018 | 11 | 269 | 8.0 | 4.8 | 0.00 | 0.61 | 0.61 | 96 | 1005.4 |
| 20260509221017 | 11 | 269 | 8.0 | 4.8 | 0.00 | 0.61 | 0.61 | 96 | 1005.5 |
| 20260509220018 | 11 | 269 | 8.0 | 4.8 | 0.00 | 0.61 | 0.61 | 97 | 1005.5 |
| 20260509215017 | 11 | 269 | 8.0 | 4.8 | 0.00 | 0.61 | 0.61 | 97 | 1005.8 |
| 20260509214018 | 11 | 269 | 8.0 | 4.8 | 0.00 | 0.61 | 0.61 | 97 | 1005.8 |
| 20260509213018 | 10 | 269 | 8.0 | 4.8 | 0.00 | 0.61 | 0.61 | 97 | 1005.9 |
| 20260509212020 | 10 | 269 | 8.0 | 4.8 | 0.00 | 0.61 | 0.61 | 96 | 1006.1 |
| 20260509211017 | 10 | 269 | 8.0 | 4.8 | 0.00 | 0.61 | 0.61 | 96 | 1006.1 |
| 20260509210020 | 11 | 269 | 8.0 | 4.8 | 0.00 | 0.61 | 0.61 | 96 | 1006.1 |
| 20260509205018 | 11 | 269 | 8.0 | 4.8 | 0.00 | 0.61 | 0.61 | 97 | 1006.2 |
| 20260509204018 | 11 | 269 | 8.0 | 4.8 | 0.00 | 0.61 | 0.61 | 97 | 1006.2 |
| 20260509203019 | 10 | 269 | 8.0 | 4.8 | 0.00 | 0.61 | 0.61 | 97 | 1006.2 |
| 20260509202018 | 10 | 269 | 8.0 | 4.8 | 0.00 | 0.61 | 0.61 | 96 | 1006.3 |
| 20260509201018 | 10 | 269 | 8.0 | 4.8 | 0.00 | 0.61 | 0.61 | 96 | 1006.4 |
| 20260509200019 | 10 | 269 | 8.0 | 4.8 | 0.00 | 0.61 | 0.61 | 97 | 1006.5 |
| 20260509195018 | 10 | 269 | 8.0 | 4.8 | 0.00 | 0.61 | 0.61 | 97 | 1006.8 |
| 20260509194018 | 10 | 269 | 8.0 | 4.8 | 0.00 | 0.61 | 0.61 | 97 | 1006.8 |
| 20260509192018 | 10 | 269 | 8.0 | 4.8 | 0.00 | 0.61 | 0.61 | 97 | 1007.0 |
| 20260509191017 | 10 | 269 | 8.0 | 4.8 | 0.00 | 0.61 | 0.61 | 96 | 1007.0 |
| 20260509190018 | 10 | 269 | 8.0 | 4.8 | 0.00 | 0.61 | 0.61 | 97 | 1007.0 |
| 20260509185017 | 10 | 269 | 8.0 | 4.8 | 0.00 | 0.61 | 0.61 | 96 | 1007.0 |
| 20260509184018 | 10 | 269 | 8.0 | 4.8 | 0.00 | 0.61 | 0.61 | 97 | 1007.1 |
| 20260509182018 | 9 | 269 | 8.0 | 4.8 | 0.00 | 0.61 | 0.61 | 96 | 1007.1 |
| 20260509181018 | 9 | 269 | 8.0 | 4.8 | 0.03 | 0.61 | 0.61 | 96 | 1007.1 |
| 20260509180018 | 9 | 269 | 8.0 | 4.8 | 0.03 | 0.61 | 0.61 | 96 | 1007.2 |
| 20260509175017 | 9 | 269 | 8.0 | 4.8 | 0.03 | 0.61 | 0.61 | 96 | 1007.2 |
| 20260509174018 | 8 | 269 | 8.0 | 4.8 | 0.03 | 0.61 | 0.61 | 96 | 1007.2 |
| 20260509173019 | 8 | 269 | 8.0 | 4.8 | 0.05 | 0.61 | 0.61 | 96 | 1007.3 |
| 20260509172019 | 8 | 269 | 8.0 | 4.8 | 0.05 | 0.61 | 0.61 | 96 | 1007.4 |
| 20260509171018 | 8 | 269 | 8.0 | 4.8 | 0.05 | 0.58 | 0.58 | 96 | 1007.6 |
| 20260509170018 | 8 | 269 | 8.0 | 4.8 | 0.05 | 0.58 | 0.58 | 96 | 1007.6 |
| 20260509165019 | 8 | 269 | 8.0 | 4.8 | 0.08 | 0.58 | 0.58 | 96 | 1007.6 |
| 20260509164019 | 7 | 269 | 8.0 | 4.8 | 0.08 | 0.58 | 0.58 | 96 | 1007.7 |
| 20260509163020 | 7 | 269 | 8.0 | 4.8 | 0.05 | 0.56 | 0.56 | 96 | 1008.2 |
| 20260509162018 | 7 | 269 | 8.0 | 4.8 | 0.08 | 0.56 | 0.56 | 96 | 1008.2 |
| 20260509161020 | 7 | 269 | 8.0 | 4.8 | 0.05 | 0.53 | 0.53 | 95 | 1008.2 |
| 20260509160021 | 7 | 269 | 8.0 | 4.8 | 0.08 | 0.53 | 0.53 | 96 | 1008.4 |
| 20260509154018 | 7 | 269 | 8.0 | 4.8 | 0.08 | 0.51 | 0.51 | 95 | 1008.7 |
| 20260509153018 | 6 | 269 | 8.0 | 4.8 | 0.10 | 0.51 | 0.51 | 95 | 1009.0 |
| 20260509152018 | 6 | 269 | 8.0 | 4.8 | 0.10 | 0.56 | 0.48 | 95 | 1009.0 |
| 20260509150018 | 6 | 269 | 8.0 | 4.8 | 0.13 | 0.53 | 0.46 | 95 | 1009.2 |
| 20260509145018 | 6 | 269 | 8.0 | 4.8 | 0.18 | 0.53 | 0.46 | 95 | 1009.2 |
| 20260509144019 | 5 | 269 | 8.0 | 4.8 | 0.18 | 0.51 | 0.43 | 95 | 1009.2 |
| 20260509143018 | 5 | 269 | 8.0 | 4.8 | 0.18 | 0.48 | 0.41 | 94 | 1009.2 |
| 20260509142019 | 5 | 269 | 8.0 | 4.8 | 0.18 | 0.46 | 0.38 | 94 | 1009.2 |
| 20260509141018 | 5 | 269 | 8.0 | 4.8 | 0.18 | 0.43 | 0.36 | 94 | 1009.3 |
| 20260509140018 | 5 | 269 | 8.0 | 4.8 | 0.18 | 0.41 | 0.33 | 94 | 1009.3 |
| 20260509135018 | 5 | 269 | 8.0 | 4.8 | 0.15 | 0.36 | 0.28 | 94 | 1009.2 |
| 20260509134018 | 5 | 269 | 8.0 | 4.8 | 0.15 | 0.33 | 0.25 | 94 | 1009.2 |
| 20260509132018 | 5 | 269 | 8.0 | 4.8 | 0.13 | 0.28 | 0.20 | 93 | 1009.3 |
| 20260509131018 | 5 | 269 | 8.0 | 4.8 | 0.10 | 0.25 | 0.18 | 93 | 1009.4 |
| 20260509130018 | 5 | 269 | 8.0 | 4.8 | 0.10 | 0.23 | 0.15 | 93 | 1009.5 |
| 20260509125018 | 5 | 269 | 8.0 | 4.8 | 0.08 | 0.20 | 0.13 | 93 | 1009.5 |
| 20260509124018 | 5 | 269 | 8.0 | 4.8 | 0.08 | 0.18 | 0.10 | 92 | 1009.5 |
| 20260509123018 | 5 | 269 | 8.0 | 4.8 | 0.10 | 0.18 | 0.10 | 92 | 1009.5 |
| 20260509122018 | 5 | 269 | 8.0 | 4.8 | 0.08 | 0.15 | 0.08 | 92 | 1009.5 |
| 20260509121018 | 4 | 269 | 8.0 | 4.8 | 0.08 | 0.15 | 0.08 | 92 | 1009.6 |
| 20260509120018 | 4 | 269 | 8.0 | 4.8 | 0.05 | 0.13 | 0.05 | 91 | 1009.6 |
| 20260509115018 | 4 | 269 | 8.0 | 4.8 | 0.05 | 0.13 | 0.05 | 91 | 1009.7 |
| 20260509114019 | 4 | 269 | 8.0 | 4.8 | 0.03 | 0.10 | 0.03 | 90 | 1009.6 |
| 20260509113019 | 4 | 269 | 8.0 | 4.8 | 0.00 | 0.08 | 0.00 | 90 | 1009.4 |
| 20260509111019 | 4 | 269 | 8.0 | 4.8 | 0.00 | 0.08 | 0.00 | 90 | 1009.4 |
| 20260509110018 | 4 | 269 | 8.0 | 4.8 | 0.00 | 0.08 | 0.00 | 90 | 1009.2 |
| 20260509105018 | 3 | 269 | 8.0 | 4.8 | 0.00 | 0.08 | 0.00 | 90 | 1009.1 |
| 20260509104020 | 3 | 269 | 8.0 | 4.8 | 0.00 | 0.08 | 0.00 | 90 | 1009.1 |
| 20260509102019 | 3 | 269 | 8.0 | 4.8 | 0.00 | 0.08 | 0.00 | 89 | 1009.0 |
| 20260509101018 | 3 | 269 | 8.0 | 4.8 | 0.00 | 0.08 | 0.00 | 88 | 1009.1 |
| 20260509100021 | 3 | 269 | 8.0 | 4.8 | 0.00 | 0.08 | 0.00 | 88 | 1009.1 |
| 20260509095019 | 3 | 269 | 8.0 | 4.8 | 0.00 | 0.08 | 0.00 | 87 | 1009.5 |
| 20260509094019 | 3 | 269 | 8.0 | 4.8 | 0.00 | 0.08 | 0.00 | 87 | 1009.5 |
| 20260509093018 | 3 | 269 | 8.0 | 4.8 | 0.00 | 0.08 | 0.00 | 87 | 1009.5 |
| 20260509092019 | 3 | 269 | 8.0 | 4.8 | 0.00 | 0.08 | 0.00 | 87 | 1009.5 |
| 20260509091018 | 3 | 269 | 8.0 | 4.8 | 0.00 | 0.10 | 0.00 | 88 | 1009.5 |
| 20260509090020 | 3 | 269 | 8.0 | 4.8 | 0.00 | 0.10 | 0.00 | 87 | 1009.6 |
| 20260509083019 | 3 | 269 | 8.0 | 4.8 | 0.00 | 0.10 | 0.00 | 89 | 1009.8 |
| 20260509082019 | 2 | 269 | 8.0 | 4.8 | 0.00 | 0.10 | 0.00 | 89 | 1009.8 |
| 20260509081020 | 2 | 269 | 8.0 | 4.8 | 0.00 | 0.10 | 0.00 | 89 | 1009.7 |
| 20260509080019 | 2 | 269 | 8.0 | 4.8 | 0.00 | 0.10 | 0.00 | 88 | 1009.6 |
| 20260509075019 | 2 | 269 | 8.0 | 4.8 | 0.00 | 0.10 | 0.00 | 88 | 1009.6 |
| 20260509074019 | 2 | 269 | 8.0 | 4.8 | 0.00 | 0.10 | 0.00 | 89 | 1009.6 |
| 20260509073019 | 1 | 269 | 8.0 | 4.8 | 0.00 | 0.10 | 0.00 | 89 | 1009.5 |
| 20260509072019 | 1 | 269 | 8.0 | 4.8 | 0.00 | 0.10 | 0.00 | 87 | 1009.6 |
| 20260509071019 | 1 | 269 | 8.0 | 4.8 | 0.00 | 0.10 | 0.00 | 87 | 1009.6 |
| 20260509070020 | 1 | 269 | 8.0 | 4.8 | 0.00 | 0.10 | 0.00 | 87 | 1009.7 |
| 20260509065019 | 1 | 269 | 8.0 | 4.8 | 0.00 | 0.10 | 0.00 | 86 | 1009.6 |
| 20260509064019 | 2 | 269 | 8.0 | 4.8 | 0.00 | 0.10 | 0.00 | 84 | 1009.7 |
| 20260509062018 | 2 | 269 | 8.0 | 4.8 | 0.00 | 0.10 | 0.00 | 85 | 1009.9 |
| 20260509061019 | 2 | 269 | 8.0 | 4.8 | 0.00 | 0.10 | 0.00 | 83 | 1009.9 |
| 20260509060023 | 2 | 269 | 8.0 | 4.8 | 0.00 | 0.10 | 0.00 | 83 | 1010.1 |
| 20260509055019 | 2 | 269 | 8.0 | 4.8 | 0.00 | 0.10 | 0.00 | 80 | 1010.2 |
| 20260509053020 | 3 | 269 | 8.0 | 4.8 | 0.00 | 0.10 | 0.00 | 81 | 1010.4 |
| 20260509052020 | 4 | 269 | 8.0 | 4.8 | 0.00 | 0.10 | 0.00 | 78 | 1010.3 |
| 20260509051020 | 5 | 269 | 8.0 | 4.8 | 0.00 | 0.10 | 0.00 | 77 | 1010.5 |
| 20260509050019 | 5 | 269 | 8.0 | 4.8 | 0.00 | 0.10 | 0.00 | 77 | 1010.5 |
| 20260509045019 | 5 | 269 | 8.0 | 4.8 | 0.00 | 0.10 | 0.00 | 76 | 1010.5 |
| 20260509044020 | 5 | 269 | 8.0 | 4.8 | 0.00 | 0.10 | 0.00 | 76 | 1010.4 |
| 20260509043018 | 5 | 269 | 8.0 | 4.8 | 0.00 | 0.10 | 0.00 | 78 | 1010.4 |
| 20260509042018 | 3 | 269 | 8.0 | 4.8 | 0.00 | 0.10 | 0.00 | 81 | 1010.3 |
| 20260509041019 | 3 | 269 | 8.0 | 4.8 | 0.00 | 0.10 | 0.00 | 82 | 1010.2 |
| 20260509040019 | 3 | 269 | 8.0 | 4.8 | 0.00 | 0.10 | 0.00 | 80 | 1010.2 |
| 20260509035019 | 3 | 269 | 8.0 | 4.8 | 0.00 | 0.10 | 0.10 | 79 | 1010.2 |
| 20260509034019 | 4 | 269 | 8.0 | 4.8 | 0.00 | 0.10 | 0.10 | 78 | 1010.2 |
| 20260509033019 | 3 | 269 | 8.0 | 4.8 | 0.00 | 0.10 | 0.10 | 78 | 1010.1 |